ROT642V LRCL-LROP

Flight info

Callsign ROT642V
Flight time 0h 37m
Altitude 33000
Route IRLOX DCT BIVBU DCT TOSVI
Aircraft A320/M-SDE3FGHIRWY/LB1

Departure

Time 2026-04-16 14:13
Airport Avram Iancu Cluj International Airport (LRCL)

Arrival

Time 2026-04-16 14:51
Airport Bucharest Henri Coandă International Airport (LROP)
Time Latitude Longitude Altitude Speed Heading
2026-04-16 13:33 46.78354 23.68751 1043 ft 0 kts 175°
2026-04-16 14:01 46.78366 23.68750 1043 ft 4 kts 175°
2026-04-16 14:01 46.78391 23.68747 1043 ft 4 kts 174°
2026-04-16 14:01 46.78412 23.68737 1043 ft 4 kts 112°
2026-04-16 14:01 46.78413 23.68701 1043 ft 4 kts 84°
2026-04-16 14:02 46.78412 23.68691 1043 ft 0 kts 86°
2026-04-16 14:07 46.78415 23.68756 1043 ft 13 kts 86°
2026-04-16 14:07 46.78423 23.68889 1043 ft 9 kts 85°
2026-04-16 14:07 46.78453 23.68941 1043 ft 7 kts
2026-04-16 14:07 46.78506 23.68920 1043 ft 9 kts 342°
2026-04-16 14:08 46.78573 23.68888 1043 ft 11 kts 342°
2026-04-16 14:08 46.78645 23.68832 1043 ft 13 kts 302°
2026-04-16 14:08 46.78631 23.68705 1043 ft 13 kts 251°
2026-04-16 14:08 46.78605 23.68589 1043 ft 11 kts 252°
2026-04-16 14:09 46.78582 23.68488 1043 ft 10 kts 252°
2026-04-16 14:09 46.78562 23.68398 1043 ft 10 kts 252°
2026-04-16 14:09 46.78540 23.68299 1043 ft 11 kts 252°
2026-04-16 14:09 46.78515 23.68189 1043 ft 12 kts 252°
2026-04-16 14:10 46.78488 23.68068 1043 ft 13 kts 252°
2026-04-16 14:10 46.78457 23.67934 1043 ft 15 kts 251°
2026-04-16 14:10 46.78435 23.67835 1043 ft 16 kts 252°
2026-04-16 14:10 46.78397 23.67670 1043 ft 19 kts 251°
2026-04-16 14:11 46.78365 23.67519 1043 ft 9 kts 256°
2026-04-16 14:11 46.78348 23.67398 1043 ft 9 kts 258°
2026-04-16 14:11 46.78341 23.67343 1043 ft 8 kts 262°
2026-04-16 14:11 46.78351 23.67276 1043 ft 6 kts 294°
2026-04-16 14:12 46.78351 23.67273 1043 ft 0 kts 295°
2026-04-16 14:12 46.78361 23.67253 1043 ft 8 kts 307°
2026-04-16 14:12 46.78434 23.67188 1043 ft 15 kts 358°
2026-04-16 14:12 46.78482 23.67246 1043 ft 0 kts 72°
2026-04-16 14:13 46.78495 23.67303 1043 ft 33 kts 71°
2026-04-16 14:13 46.78659 23.68017 1043 ft 111 kts 71°
2026-04-16 14:13 46.78968 23.69368 1141 ft 159 kts 66°
2026-04-16 14:13 46.79328 23.70901 1864 ft 161 kts 66°
2026-04-16 14:14 46.79692 23.72477 2561 ft 170 kts 67°
2026-04-16 14:14 46.80084 23.74222 2986 ft 192 kts 70°
2026-04-16 14:14 46.80523 23.76190 3373 ft 215 kts 69°
2026-04-16 14:14 46.81007 23.78356 3821 ft 235 kts 69°
2026-04-16 14:15 46.81540 23.80739 4293 ft 259 kts 69°
2026-04-16 14:15 46.82114 23.83313 5065 ft 271 kts 69°
2026-04-16 14:15 46.82700 23.85958 5994 ft 276 kts 70°
2026-04-16 14:15 46.83299 23.88668 6767 ft 284 kts 71°
2026-04-16 14:16 46.83911 23.91431 6971 ft 286 kts 70°
2026-04-16 14:16 46.84690 23.94108 7321 ft 290 kts 55°
2026-04-16 14:16 46.86000 23.96303 8306 ft 287 kts 37°
2026-04-16 14:16 46.87687 23.97770 9204 ft 287 kts 17°
2026-04-16 14:17 46.89638 23.98338 10079 ft 288 kts 358°
2026-04-16 14:17 46.91612 23.97929 10894 ft 287 kts 339°
2026-04-16 14:17 46.93382 23.96603 11669 ft 287 kts 319°
2026-04-16 14:17 46.94661 23.94373 12436 ft 291 kts 297°
2026-04-16 14:18 46.95264 23.91453 12727 ft 314 kts 273°
2026-04-16 14:18 46.94900 23.88211 12972 ft 338 kts 247°
2026-04-16 14:18 46.93449 23.85428 13476 ft 355 kts 220°
2026-04-16 14:18 46.91201 23.83849 14124 ft 368 kts 194°
2026-04-16 14:19 46.88623 23.83838 14762 ft 378 kts 171°
2026-04-16 14:19 46.86081 23.84926 15444 ft 384 kts 160°
2026-04-16 14:19 46.83624 23.86531 16133 ft 389 kts 155°
2026-04-16 14:19 46.81219 23.88363 16815 ft 393 kts 153°
2026-04-16 14:20 46.78792 23.90254 17498 ft 396 kts 154°
2026-04-16 14:20 46.76330 23.92089 18161 ft 400 kts 155°
2026-04-16 14:20 46.73809 23.93845 18746 ft 404 kts 157°
2026-04-16 14:20 46.71233 23.95533 19337 ft 407 kts 158°
2026-04-16 14:21 46.68626 23.97178 19909 ft 410 kts 159°
2026-04-16 14:21 46.65986 23.98818 20476 ft 414 kts 159°
2026-04-16 14:21 46.63356 24.00453 21020 ft 418 kts 159°
2026-04-16 14:21 46.60636 24.02162 21564 ft 422 kts 158°
2026-04-16 14:22 46.57972 24.03851 22091 ft 426 kts 158°
2026-04-16 14:22 46.55247 24.05589 22592 ft 429 kts 158°
2026-04-16 14:22 46.52497 24.07344 23097 ft 433 kts 158°
2026-04-16 14:22 46.49724 24.09112 23579 ft 437 kts 158°
2026-04-16 14:23 46.46933 24.10892 23988 ft 440 kts 158°
2026-04-16 14:23 46.44119 24.12680 24396 ft 443 kts 158°
2026-04-16 14:23 46.41280 24.14477 24793 ft 445 kts 158°
2026-04-16 14:23 46.38432 24.16272 25194 ft 447 kts 158°
2026-04-16 14:24 46.35572 24.18076 25595 ft 449 kts 158°
2026-04-16 14:24 46.32697 24.19888 25977 ft 451 kts 158°
2026-04-16 14:24 46.29811 24.21703 26363 ft 453 kts 158°
2026-04-16 14:24 46.26911 24.23524 26739 ft 456 kts 158°
2026-04-16 14:25 46.23996 24.25353 27027 ft 458 kts 158°
2026-04-16 14:25 46.21097 24.27178 27094 ft 447 kts 158°
2026-04-16 14:25 46.18316 24.28935 27100 ft 427 kts 158°
2026-04-16 14:25 46.15654 24.30615 27099 ft 409 kts 158°
2026-04-16 14:26 46.13092 24.32227 27096 ft 392 kts 158°
2026-04-16 14:26 46.10637 24.33765 27095 ft 376 kts 158°
2026-04-16 14:26 46.08282 24.35235 27096 ft 361 kts 159°
2026-04-16 14:26 46.06052 24.36628 27099 ft 348 kts 158°
2026-04-16 14:27 46.03843 24.38007 27096 ft 344 kts 159°
2026-04-16 14:27 46.01655 24.39369 27098 ft 343 kts 159°
2026-04-16 14:27 45.99467 24.40730 27097 ft 342 kts 159°
2026-04-16 14:27 45.97281 24.42091 27089 ft 342 kts 158°
2026-04-16 14:28 45.95148 24.43601 27100 ft 342 kts 147°
2026-04-16 14:28 45.93199 24.45569 27101 ft 343 kts 146°
2026-04-16 14:28 45.91257 24.47556 27102 ft 343 kts 146°
2026-04-16 14:28 45.89307 24.49551 27099 ft 343 kts 146°
2026-04-16 14:29 45.87365 24.51536 27095 ft 343 kts 146°
2026-04-16 14:29 45.85421 24.53518 27103 ft 343 kts 146°
2026-04-16 14:29 45.83475 24.55498 27103 ft 343 kts 146°
2026-04-16 14:29 45.81527 24.57473 27102 ft 343 kts 146°
2026-04-16 14:30 45.79582 24.59442 27102 ft 343 kts 146°
2026-04-16 14:30 45.77658 24.61392 27104 ft 343 kts 146°
2026-04-16 14:30 45.75713 24.63365 27104 ft 343 kts 146°
2026-04-16 14:30 45.73740 24.65369 27109 ft 343 kts 146°
2026-04-16 14:31 45.71820 24.67318 27108 ft 343 kts 146°
2026-04-16 14:31 45.69874 24.69295 27104 ft 343 kts 146°
2026-04-16 14:31 45.67927 24.71270 27114 ft 343 kts 145°
2026-04-16 14:31 45.65983 24.73240 27119 ft 342 kts 145°
2026-04-16 14:32 45.64037 24.75208 27122 ft 342 kts 145°
2026-04-16 14:32 45.62091 24.77169 27124 ft 342 kts 146°
2026-04-16 14:32 45.60151 24.79120 27123 ft 341 kts 146°
2026-04-16 14:32 45.58210 24.81071 27126 ft 341 kts 146°
2026-04-16 14:33 45.56267 24.83025 27126 ft 341 kts 146°
2026-04-16 14:33 45.54330 24.84975 27124 ft 341 kts 146°
2026-04-16 14:33 45.52310 24.87007 26758 ft 372 kts 146°
2026-04-16 14:33 45.50079 24.89242 26058 ft 410 kts 145°
2026-04-16 14:34 45.47684 24.91641 25335 ft 427 kts 145°
2026-04-16 14:34 45.45241 24.94089 24604 ft 429 kts 145°
2026-04-16 14:34 45.42799 24.96531 23881 ft 430 kts 145°
2026-04-16 14:34 45.40382 24.98946 23100 ft 429 kts 145°
2026-04-16 14:35 45.37916 25.01409 22415 ft 426 kts 145°
2026-04-16 14:35 45.35525 25.03797 21754 ft 423 kts 145°
2026-04-16 14:35 45.33124 25.06195 21104 ft 421 kts 146°
2026-04-16 14:35 45.30728 25.08581 20483 ft 419 kts 146°
2026-04-16 14:36 45.28352 25.10941 19876 ft 416 kts 146°
2026-04-16 14:36 45.25980 25.13291 19294 ft 414 kts 146°
2026-04-16 14:36 45.23623 25.15623 18730 ft 411 kts 146°
2026-04-16 14:36 45.21284 25.17938 18146 ft 409 kts 146°
2026-04-16 14:37 45.18961 25.20234 17591 ft 404 kts 146°
2026-04-16 14:37 45.16662 25.22505 17065 ft 400 kts 146°
2026-04-16 14:37 45.14392 25.24749 16530 ft 396 kts 146°
2026-04-16 14:37 45.12140 25.26970 15981 ft 393 kts 146°
2026-04-16 14:38 45.09933 25.29143 15434 ft 390 kts 146°
2026-04-16 14:38 45.07715 25.31333 14870 ft 388 kts 146°
2026-04-16 14:38 45.05508 25.33511 14287 ft 386 kts 146°
2026-04-16 14:38 45.03304 25.35683 13654 ft 385 kts 146°
2026-04-16 14:39 45.01113 25.37839 13033 ft 382 kts 146°
2026-04-16 14:39 44.98939 25.39974 12408 ft 379 kts 146°
2026-04-16 14:39 44.96781 25.42089 11778 ft 376 kts 145°
2026-04-16 14:39 44.94635 25.44191 11141 ft 374 kts 145°
2026-04-16 14:40 44.92528 25.46251 10879 ft 360 kts 145°
2026-04-16 14:40 44.90515 25.48216 10754 ft 344 kts 145°
2026-04-16 14:40 44.88613 25.50070 10624 ft 320 kts 145°
2026-04-16 14:40 44.86833 25.51806 10263 ft 304 kts 145°
2026-04-16 14:41 44.85120 25.53477 10017 ft 297 kts 145°
2026-04-16 14:41 44.83442 25.55115 9896 ft 297 kts 145°
2026-04-16 14:41 44.81744 25.56773 9766 ft 296 kts 144°
2026-04-16 14:41 44.80050 25.58427 9634 ft 296 kts 144°
2026-04-16 14:42 44.78349 25.60083 9184 ft 299 kts 145°
2026-04-16 14:42 44.76636 25.61743 8686 ft 300 kts 145°
2026-04-16 14:42 44.74934 25.63390 8361 ft 295 kts 144°
2026-04-16 14:42 44.73248 25.65022 7950 ft 293 kts 144°
2026-04-16 14:43 44.71585 25.66634 7465 ft 288 kts 144°
2026-04-16 14:43 44.69942 25.68228 6898 ft 285 kts 144°
2026-04-16 14:43 44.68317 25.69805 6237 ft 282 kts 144°
2026-04-16 14:43 44.66717 25.71355 5574 ft 277 kts 144°
2026-04-16 14:44 44.65141 25.72878 5006 ft 269 kts 144°
2026-04-16 14:44 44.63660 25.74306 4796 ft 247 kts 144°
2026-04-16 14:44 44.62302 25.75609 4660 ft 227 kts 143°
2026-04-16 14:44 44.61026 25.76835 4561 ft 221 kts 143°
2026-04-16 14:45 44.59786 25.78033 4361 ft 209 kts 144°
2026-04-16 14:45 44.58640 25.79137 4267 ft 198 kts 143°
2026-04-16 14:45 44.57509 25.80228 4209 ft 189 kts 143°
2026-04-16 14:45 44.56546 25.81293 4103 ft 168 kts 129°
2026-04-16 14:46 44.55980 25.82586 4017 ft 145 kts 109°
2026-04-16 14:46 44.55786 25.83925 3821 ft 137 kts 90°
2026-04-16 14:46 44.55866 25.85250 3628 ft 136 kts 83°
2026-04-16 14:46 44.55972 25.86560 3434 ft 134 kts 84°
2026-04-16 14:47 44.56075 25.87862 3249 ft 134 kts 84°
2026-04-16 14:47 44.56178 25.89154 3054 ft 133 kts 85°
2026-04-16 14:47 44.56279 25.90438 2874 ft 133 kts 84°
2026-04-16 14:47 44.56383 25.91742 2688 ft 134 kts 85°
2026-04-16 14:48 44.56484 25.93057 2508 ft 135 kts 86°
2026-04-16 14:48 44.56584 25.94361 2325 ft 134 kts 86°
2026-04-16 14:48 44.56683 25.95657 2146 ft 133 kts 86°
2026-04-16 14:48 44.56782 25.96948 1962 ft 133 kts 85°
2026-04-16 14:49 44.56881 25.98232 1780 ft 133 kts 86°
2026-04-16 14:49 44.56980 25.99518 1601 ft 132 kts 86°
2026-04-16 14:49 44.57079 26.00800 1422 ft 133 kts 85°
2026-04-16 14:49 44.57176 26.02080 1240 ft 132 kts 86°
2026-04-16 14:50 44.57270 26.03363 1020 ft 134 kts 84°
2026-04-16 14:50 44.57374 26.04647 905 ft 133 kts 84°
2026-04-16 14:50 44.57477 26.05939 734 ft 133 kts 84°
2026-04-16 14:50 44.57571 26.07221 547 ft 132 kts 84°
2026-04-16 14:51 44.57669 26.08490 362 ft 130 kts 84°
2026-04-16 14:51 44.57753 26.09636 322 ft 97 kts 84°
2026-04-16 14:51 44.57805 26.10332 323 ft 42 kts 84°
2026-04-16 14:51 44.57820 26.10525 322 ft 16 kts 84°
2026-04-16 14:53 44.57739 26.11158 322 ft 0 kts 149°
2026-04-16 14:54 44.57738 26.11159 322 ft 2 kts 150°
2026-04-16 14:54 44.57693 26.11118 322 ft 16 kts 255°
2026-04-16 14:54 44.57680 26.10956 322 ft 16 kts 265°
2026-04-16 14:54 44.57667 26.10801 322 ft 15 kts 263°
2026-04-16 14:55 44.57656 26.10657 322 ft 14 kts 264°
2026-04-16 14:55 44.57646 26.10526 322 ft 13 kts 264°
2026-04-16 14:55 44.57637 26.10405 322 ft 12 kts 264°
2026-04-16 14:55 44.57629 26.10296 322 ft 11 kts 263°
2026-04-16 14:56 44.57621 26.10194 322 ft 10 kts 264°
2026-04-16 14:56 44.57614 26.10100 322 ft 9 kts 263°
2026-04-16 14:56 44.57607 26.10013 322 ft 9 kts 264°
2026-04-16 14:56 44.57601 26.09932 322 ft 8 kts 264°
2026-04-16 14:57 44.57590 26.09860 321 ft 7 kts 238°
2026-04-16 14:57 44.57549 26.09835 322 ft 6 kts 184°
2026-04-16 14:57 44.57511 26.09839 322 ft 5 kts 173°
2026-04-16 14:57 44.57447 26.09848 323 ft 16 kts 174°
2026-04-16 14:58 44.57306 26.09870 322 ft 22 kts 174°
2026-04-16 14:58 44.57067 26.09906 322 ft 2 kts 174°
2026-04-16 14:58 44.57057 26.09908 321 ft 3 kts 169°
2026-04-16 14:59 44.57026 26.09982 322 ft 12 kts 91°
2026-04-16 14:59 44.57018 26.10044 321 ft 5 kts 142°
2026-04-16 14:59 44.56990 26.10041 322 ft 4 kts 198°
2026-04-16 14:59 44.56968 26.10028 322 ft 3 kts 204°
2026-04-16 15:00 44.56963 26.10025 322 ft 0 kts 204°